Weather History for KTOP - October, 2013

Change the Weather History Date:

Monday, October 14, 2013

  Actual Average Record
Temperature  
Mean Temperature 59 °F 57 °F  
Max Temperature 69 °F 69 °F 92 °F (1938)
Min Temperature 49 °F 45 °F 26 °F (2006)
Degree Days  
Heating Degree Days 6 9  
Month to date heating degree days 53 98  
Since 1 July heating degree days 67 165  
Cooling Degree Days 0 1  
Month to date cooling degree days 37 20  
Year to date cooling degree days 1586 1413  
Growing Degree Days 8 (Base 50)    
Moisture  
Dew Point 52 °F    
Average Humidity 69    
Maximum Humidity 90    
Minimum Humidity 48    
Precipitation  
Precipitation 0.61 in 0.10 in 1.18 in (1930)
Month to date precipitation 1.65 1.48  
Year to date precipitation 29.39 31.71  
Snow  
Snow 0.00 in 0.00 in T in (1965)
Month to date snowfall 0.0 0.1  
Year to date snowfall 24.2 11.4  
Since 1 July snowfall 0.0 0.1  
Snow Depth 0.00 in    
Sea Level Pressure  
Sea Level Pressure 30.00 in    
Wind  
Wind Speed 12 mph (SE)    
Max Wind Speed 28 mph    
Max Gust Speed 35 mph    
Visibility 8 miles    
Events Rain , Thunderstorm    
T = Trace of Precipitation, MM = Missing Value Source: NWS Daily Summary

Daily Weather History Graph

Daily Weather History Graph

Search for Another Location

Airport or City:

Trip Planner

Search our weather history database for the weather conditions in past years. The results will help you decide how hot, cold, wet, or windy it might be!

Date:

Astronomy

Oct. 14, 2013 Rise Set
Actual Time 7:31 AM CDT 6:44 PM CDT
Civil Twilight 7:04 AM CDT 7:11 PM CDT
Nautical Twilight 6:33 AM CDT 7:42 PM CDT
Astronomical Twilight 6:02 AM CDT 8:13 PM CDT
Moon 4:13 PM CDT (10/14) 2:51 AM CDT (10/14)
Length of Visible Light 12h 07m
Length of Day
11h 13m
Waxing Gibbous, 79% of the Moon is Illuminated
Oct 14
Waxing Gibbous
Oct 18
Full
Oct 26
Last Quarter
Nov 3
New
Nov 9
First Quarter

Hourly Weather History & Observations

Time (CDT) Temp. Dew Point Humidity Pressure Visibility Wind Dir Wind Speed Gust Speed Precip Events Conditions
12:53 AM 54.0 °F 39.0 °F 57% 30.27 in 10.0 mi East 3.5 mph - N/A   Mostly Cloudy
1:53 AM 54.0 °F 39.9 °F 59% 30.27 in 10.0 mi East 4.6 mph - N/A   Overcast
2:53 AM 53.1 °F 37.9 °F 57% 30.24 in 10.0 mi East 8.1 mph - N/A   Mostly Cloudy
3:53 AM 54.0 °F 37.0 °F 53% 30.22 in 10.0 mi East 8.1 mph - N/A   Overcast
4:53 AM 54.0 °F 37.0 °F 53% 30.19 in 10.0 mi East 9.2 mph - N/A   Scattered Clouds
5:53 AM 53.1 °F 37.9 °F 57% 30.18 in 10.0 mi SE 5.8 mph - N/A   Partly Cloudy
6:53 AM 55.0 °F 39.0 °F 55% 30.17 in 10.0 mi East 5.8 mph - N/A   Overcast
7:53 AM 55.0 °F 39.9 °F 57% 30.17 in 10.0 mi East 3.5 mph - N/A   Mostly Cloudy
8:53 AM 59.0 °F 42.1 °F 53% 30.16 in 10.0 mi SE 9.2 mph - N/A   Overcast
9:53 AM 61.0 °F 41.0 °F 48% 30.13 in 10.0 mi SE 17.3 mph 24.2 mph N/A   Overcast
10:53 AM 62.1 °F 42.1 °F 48% 30.09 in 10.0 mi SE 20.7 mph 28.8 mph 0.00 in Rain Light Rain
11:53 AM 66.0 °F 46.0 °F 48% 30.06 in 10.0 mi SE 16.1 mph 26.5 mph 0.00 in Rain Light Rain
12:53 PM 68.0 °F 50.0 °F 52% 30.05 in 10.0 mi SE 23.0 mph 28.8 mph 0.00 in Rain Light Rain
1:41 PM 63.0 °F 54.0 °F 72% 30.03 in 9.0 mi SSE 10.4 mph - 0.01 in Rain Light Rain
1:53 PM 62.1 °F 54.0 °F 75% 30.01 in 10.0 mi SE 10.4 mph - 0.01 in Rain Light Rain
2:53 PM 61.0 °F 55.0 °F 81% 29.98 in 9.0 mi SSE 15.0 mph 21.9 mph 0.02 in Rain Light Rain
3:29 PM 61.0 °F 57.0 °F 87% 29.96 in 5.0 mi SE 13.8 mph - 0.01 in Rain Light Rain
3:48 PM 60.8 °F 57.2 °F 88% 29.95 in 3.0 mi SE 13.8 mph - 0.02 in Rain Light Rain
3:53 PM 60.1 °F 57.0 °F 90% 29.95 in 4.0 mi SE 13.8 mph - 0.02 in Rain Light Rain
4:01 PM 60.1 °F 57.0 °F 90% 29.95 in 3.0 mi SE 15.0 mph - 0.01 in Rain Light Rain
4:11 PM 60.1 °F 57.0 °F 90% 29.94 in 2.5 mi SE 12.7 mph - 0.01 in Rain Light Rain
4:20 PM 60.1 °F 57.0 °F 90% 29.94 in 3.0 mi SSE 15.0 mph - 0.02 in Rain Light Rain
4:38 PM 60.1 °F 57.0 °F 90% 29.94 in 5.0 mi SE 11.5 mph - 0.03 in Rain Light Rain
4:45 PM 60.1 °F 57.0 °F 90% 29.93 in 1.8 mi SE 13.8 mph - 0.05 in Rain Heavy Rain
4:53 PM 60.1 °F 57.0 °F 90% 29.92 in 3.0 mi SE 15.0 mph - 0.06 in Rain Light Rain
5:53 PM 61.0 °F 57.9 °F 90% 29.90 in 7.0 mi SE 15.0 mph - 0.03 in Rain Light Rain
6:53 PM 62.1 °F 59.0 °F 90% 29.86 in 10.0 mi SE 16.1 mph - 0.00 in Rain Light Rain
7:53 PM 63.0 °F 59.0 °F 87% 29.86 in 10.0 mi SSE 13.8 mph - 0.00 in   Overcast
8:53 PM 64.0 °F 61.0 °F 90% 29.84 in 6.0 mi South 23.0 mph 29.9 mph 0.00 in Rain Light Rain
9:18 PM 64.0 °F 61.0 °F 90% 29.82 in 9.0 mi SSE 25.3 mph 32.2 mph 0.01 in Rain Light Rain
9:26 PM 64.0 °F 61.0 °F 90% 29.83 in 10.0 mi SSE 20.7 mph 31.1 mph 0.01 in Rain Light Rain
9:53 PM 64.9 °F 61.0 °F 87% 29.83 in 10.0 mi South 19.6 mph 29.9 mph 0.01 in Rain Light Rain
10:35 PM 64.9 °F 61.0 °F 87% 29.84 in 9.0 mi South 16.1 mph 27.6 mph 0.00 in Rain , Thunderstorm Light Rain
10:48 PM 64.4 °F 60.8 °F 88% 29.89 in 7.0 mi West 17.3 mph 23.0 mph 0.00 in Rain , Thunderstorm Light Thunderstorms and Rain
10:53 PM 64.0 °F 61.0 °F 90% 29.88 in 1.8 mi Variable 5.8 mph 23.0 mph 0.03 in Rain , Thunderstorm Heavy Thunderstorms and Rain
11:09 PM 64.0 °F 61.0 °F 90% 29.89 in 3.0 mi WNW 8.1 mph - 0.33 in Rain , Thunderstorm Thunderstorms and Rain
11:14 PM 63.0 °F 61.0 °F 93% 29.89 in 2.5 mi West 6.9 mph - 0.35 in Rain , Thunderstorm Heavy Rain
11:21 PM 63.0 °F 60.1 °F 90% 29.89 in 3.0 mi SSW 4.6 mph - 0.38 in Rain , Thunderstorm Heavy Rain
11:25 PM 63.0 °F 60.1 °F 90% 29.89 in 4.0 mi SSW 5.8 mph - 0.39 in Rain Rain
11:53 PM 62.1 °F 59.0 °F 90% 29.85 in 10.0 mi East 9.2 mph - 0.41 in   Overcast